COWK1: Cowskin Creek at 119th N. Wichita, KS

Data processed at Wed May 22 2019 23:30


All information presented herein is the property of the government of the United States of America and may be revised or deleted at any time without prior notice.
Dissemination of this information without the expressed written consent of the Public Affairs Office, Tulsa District U.S. Army Corps of Engineers is strictly prohibited.
These data are gathered electronically and, as presented, have not undergone any form of quality control. These data are not guaranteed to be valid or correct.
Go to home page.
Go to station list.
Go to home page.

Upstream stations:

Downstream station:
Previous Day
Next Day
Current Day
    
SHEF ID:       COWK1     COWSKIN C AT 119TH ST AT WICHITA
STATION TYPE:  
Regulating: Stage =    18.00, Flow =     1458

               PRECIP     STAGE  RIV-FLOW  BAT-LOAD
                   in        ft       cfs      volt
              Ccp-Rev   Ccp-Rev   Ccp-Rev   Ccp-Rev
(US/Central)
05/22 00:00      0.00     19.51      2912     11.86
05/22 01:00      0.00     19.47      2841     11.70
05/22 02:00      0.00     19.38      2685     11.53
05/22 03:00      0.00     19.27      2505     11.70
05/22 04:00      0.00     19.13      2291     11.53
05/22 05:00      0.00     19.01      2120     11.61
05/22 06:00      0.00     18.92      2000     11.53
05/22 07:00      0.00     18.76      1873     11.46
05/22 08:00      0.00     18.67      1804     11.53
05/22 09:00      0.00     18.56      1723     11.53
05/22 10:00      0.00     18.47      1660     11.70
05/22 11:00      0.00     18.38      1597     12.73
05/22 12:00      0.00     18.30      1565     12.81
05/22 13:00      0.00     18.22      1536     12.41
05/22 14:00      0.00     18.13      1503     12.57
05/22 15:00      0.00     18.03      1468     12.81
05/22 16:00      0.00     17.94      1437     12.89
05/22 17:00      0.00     17.84      1403     12.49
05/22 18:00      0.00     17.76      1376     12.33
05/22 19:00      0.00     17.64      1336     12.41
05/22 20:00      0.00     17.54      1303     11.93
05/22 21:00      0.00     17.41      1262     12.41
05/22 22:00      0.00     17.31      1238     11.77
05/22 23:00      ----     17.17      1205      ----